Time,TemperatureF,DewpointF,PressureIn,WindDirection,WindDirectionDegrees,WindSpeedMPH,WindSpeedGustMPH,Humidity,HourlyPrecipIn,Conditions,Clouds,dailyrainin,SoftwareType,DateUTC
2013-04-30 00:01:00,58.4,51.6,29.90,South,180,2.0,2.0,78,0.00,,SKC,0.00,VWS V14.01,2013-04-30 04:01:00,
2013-04-30 00:06:00,58.1,51.3,29.90,SSW,202,0.8,2.0,78,0.00,,SKC,0.00,VWS V14.01,2013-04-30 04:06:00,
2013-04-30 00:11:00,58.1,51.3,29.90,SSW,202,0.0,2.0,78,0.00,,SKC,0.00,VWS V14.01,2013-04-30 04:11:00,
2013-04-30 00:16:00,58.1,51.6,29.90,SSW,202,0.0,0.0,79,0.00,,SKC,0.00,VWS V14.01,2013-04-30 04:16:00,
2013-04-30 00:21:00,58.1,51.6,29.90,SSW,202,0.0,0.0,79,0.00,,SKC,0.00,VWS V14.01,2013-04-30 04:21:00,
2013-04-30 00:26:00,57.9,51.8,29.90,SSW,202,0.0,0.0,80,0.00,,SKC,0.00,VWS V14.01,2013-04-30 04:26:00,
2013-04-30 00:31:00,57.9,51.8,29.90,SSW,202,0.2,0.2,80,0.00,,SKC,0.00,VWS V14.01,2013-04-30 04:31:00,
2013-04-30 00:36:00,57.9,52.1,29.90,SSW,202,0.8,0.8,81,0.00,,SKC,0.00,VWS V14.01,2013-04-30 04:36:00,
2013-04-30 00:41:00,57.9,52.1,29.91,SSW,202,0.0,2.2,81,0.00,,SKC,0.00,VWS V14.01,2013-04-30 04:41:00,
2013-04-30 00:46:00,57.9,52.1,29.90,South,180,0.0,0.0,81,0.00,,SKC,0.00,VWS V14.01,2013-04-30 04:46:00,
2013-04-30 00:51:00,57.9,52.1,29.91,SSW,202,0.0,0.0,81,0.00,,SKC,0.00,VWS V14.01,2013-04-30 04:51:00,
2013-04-30 00:56:00,57.7,52.2,29.91,SSE,158,0.0,0.0,82,0.00,,SKC,0.00,VWS V14.01,2013-04-30 04:56:00,
2013-04-30 01:01:00,57.7,52.2,29.91,SSE,158,0.0,0.0,82,0.00,,SKC,0.00,VWS V14.01,2013-04-30 05:01:00,
2013-04-30 01:06:00,57.7,52.2,29.91,South,180,0.0,0.0,82,0.00,,SKC,0.00,VWS V14.01,2013-04-30 05:06:00,
2013-04-30 01:11:00,57.7,52.2,29.91,South,180,0.8,0.8,82,0.00,,SKC,0.00,VWS V14.01,2013-04-30 05:11:00,
2013-04-30 01:16:00,57.7,52.6,29.91,SSW,202,0.0,0.0,83,0.00,,SKC,0.00,VWS V14.01,2013-04-30 05:16:00,
2013-04-30 01:21:00,57.5,52.4,29.90,South,180,1.3,1.3,83,0.00,,SKC,0.00,VWS V14.01,2013-04-30 05:21:00,
2013-04-30 01:26:00,57.7,52.6,29.91,SSW,202,3.5,3.5,83,0.00,,SKC,0.00,VWS V14.01,2013-04-30 05:26:00,
2013-04-30 01:31:00,57.5,52.4,29.91,SSW,202,0.0,0.0,83,0.00,,SKC,0.00,VWS V14.01,2013-04-30 05:31:00,
2013-04-30 01:37:00,57.7,52.6,29.91,SSW,202,0.0,0.0,83,0.00,,SKC,0.00,VWS V14.01,2013-04-30 05:37:00,
2013-04-30 01:41:00,57.7,52.6,29.91,West,270,0.0,0.0,83,0.00,,SKC,0.00,VWS V14.01,2013-04-30 05:41:00,
2013-04-30 01:47:00,57.5,52.4,29.91,West,270,0.0,0.0,83,0.00,,SKC,0.00,VWS V14.01,2013-04-30 05:47:00,
2013-04-30 01:52:00,57.5,52.4,29.92,SW,225,0.0,0.0,83,0.00,,SKC,0.00,VWS V14.01,2013-04-30 05:52:00,
2013-04-30 01:57:00,57.5,52.4,29.91,SW,225,0.0,1.7,83,0.00,,SKC,0.00,VWS V14.01,2013-04-30 05:57:00,
2013-04-30 02:02:00,57.5,52.4,29.91,SSW,202,1.3,1.3,83,0.00,,SKC,0.00,VWS V14.01,2013-04-30 06:02:00,
2013-04-30 02:07:00,57.5,52.4,29.91,SSW,202,1.3,1.3,83,0.00,,SKC,0.00,VWS V14.01,2013-04-30 06:07:00,
2013-04-30 02:12:00,57.3,52.2,29.91,South,180,0.0,1.3,83,0.00,,SKC,0.00,VWS V14.01,2013-04-30 06:12:00,
2013-04-30 02:17:00,57.3,51.9,29.91,SSW,202,0.0,0.0,82,0.00,,SKC,0.00,VWS V14.01,2013-04-30 06:17:00,
2013-04-30 02:22:00,57.2,52.1,29.92,SW,225,0.0,0.0,83,0.00,,SKC,0.00,VWS V14.01,2013-04-30 06:22:00,
2013-04-30 02:27:00,57.0,51.9,29.92,SSW,202,0.0,0.0,83,0.00,,SKC,0.00,VWS V14.01,2013-04-30 06:27:00,
2013-04-30 02:32:00,57.0,51.9,29.92,SW,225,1.5,1.5,83,0.00,,SKC,0.00,VWS V14.01,2013-04-30 06:32:00,
2013-04-30 02:37:00,57.0,51.9,29.92,SSW,202,0.0,1.5,83,0.00,,SKC,0.00,VWS V14.01,2013-04-30 06:37:00,
2013-04-30 02:42:00,56.8,51.7,29.92,South,180,0.0,1.5,83,0.00,,SKC,0.00,VWS V14.01,2013-04-30 06:42:00,
2013-04-30 02:47:00,56.8,51.7,29.92,South,180,0.0,0.0,83,0.00,,SKC,0.00,VWS V14.01,2013-04-30 06:47:00,
2013-04-30 02:52:00,56.8,51.4,29.92,South,180,0.0,0.0,82,0.00,,SKC,0.00,VWS V14.01,2013-04-30 06:52:00,
2013-04-30 02:57:00,56.6,51.2,29.92,South,180,0.4,0.4,82,0.00,,SKC,0.00,VWS V14.01,2013-04-30 06:57:00,
2013-04-30 03:02:00,56.4,51.0,29.92,SSW,202,0.2,0.2,82,0.00,,SKC,0.00,VWS V14.01,2013-04-30 07:02:00,
2013-04-30 03:07:00,56.1,50.7,29.92,SSW,202,2.6,2.6,82,0.00,,SKC,0.00,VWS V14.01,2013-04-30 07:07:00,
2013-04-30 03:12:00,56.1,51.3,29.92,South,180,0.0,2.6,84,0.00,,SKC,0.00,VWS V14.01,2013-04-30 07:12:00,
2013-04-30 03:17:00,56.1,51.3,29.92,South,180,0.0,0.0,84,0.00,,SKC,0.00,VWS V14.01,2013-04-30 07:17:00,
2013-04-30 03:22:00,56.1,51.3,29.92,SW,225,2.0,2.9,84,0.00,,SKC,0.00,VWS V14.01,2013-04-30 07:22:00,
2013-04-30 03:27:00,56.1,51.3,29.92,SSW,202,1.3,2.9,84,0.00,,SKC,0.00,VWS V14.01,2013-04-30 07:27:00,
2013-04-30 03:32:00,55.9,51.1,29.92,SSW,202,1.3,1.3,84,0.00,,SKC,0.00,VWS V14.01,2013-04-30 07:32:00,
2013-04-30 03:37:00,55.7,51.0,29.92,SSW,202,0.6,1.3,84,0.00,,SKC,0.00,VWS V14.01,2013-04-30 07:37:00,
2013-04-30 03:42:00,55.5,50.8,29.92,South,180,0.0,2.4,84,0.00,,SKC,0.00,VWS V14.01,2013-04-30 07:42:00,
2013-04-30 03:47:00,55.5,51.1,29.92,South,180,0.6,0.6,85,0.00,,SKC,0.00,VWS V14.01,2013-04-30 07:47:00,
2013-04-30 03:52:00,55.2,50.8,29.93,SW,225,0.0,0.6,85,0.00,,SKC,0.00,VWS V14.01,2013-04-30 07:52:00,
2013-04-30 03:57:00,55.2,50.8,29.93,WSW,248,0.0,0.6,85,0.00,,SKC,0.00,VWS V14.01,2013-04-30 07:57:00,
2013-04-30 04:02:00,55.2,50.8,29.93,WSW,248,0.0,0.0,85,0.00,,SKC,0.00,VWS V14.01,2013-04-30 08:02:00,
2013-04-30 04:07:00,55.0,50.6,29.94,SW,225,0.0,0.0,85,0.00,,SKC,0.00,VWS V14.01,2013-04-30 08:07:00,
2013-04-30 04:12:00,54.6,50.2,29.93,South,180,0.0,0.0,85,0.00,,SKC,0.06,VWS V14.01,2013-04-30 08:12:00,
2013-04-30 04:17:00,54.6,50.2,29.94,South,180,0.8,0.8,85,0.00,,SKC,0.00,VWS V14.01,2013-04-30 08:17:00,
2013-04-30 04:22:00,54.5,50.1,29.94,South,180,0.0,0.8,85,0.00,,SKC,0.00,VWS V14.01,2013-04-30 08:22:00,
2013-04-30 04:27:00,54.3,50.2,29.93,South,180,1.3,1.3,86,0.00,,SKC,0.00,VWS V14.01,2013-04-30 08:27:00,
2013-04-30 04:32:00,54.3,50.2,29.93,SSW,202,1.3,1.5,86,0.00,,SKC,0.00,VWS V14.01,2013-04-30 08:32:00,
2013-04-30 04:37:00,54.3,50.5,29.93,SSW,202,0.0,1.5,87,0.00,,SKC,0.00,VWS V14.01,2013-04-30 08:37:00,
2013-04-30 04:42:00,54.3,50.5,29.93,South,180,1.1,1.5,87,0.00,,SKC,0.00,VWS V14.01,2013-04-30 08:42:00,
2013-04-30 04:47:00,54.1,50.6,29.93,SSW,202,1.7,1.7,88,0.00,,SKC,0.00,VWS V14.01,2013-04-30 08:47:00,
2013-04-30 04:52:00,54.3,50.8,29.93,SSW,202,0.2,1.7,88,0.00,,SKC,0.00,VWS V14.01,2013-04-30 08:52:00,
2013-04-30 04:58:00,54.1,50.6,29.93,SSW,202,1.5,2.0,88,0.00,,SKC,0.00,VWS V14.01,2013-04-30 08:58:00,
2013-04-30 05:03:00,54.1,50.9,29.93,SSW,202,0.0,2.0,89,0.00,,SKC,0.00,VWS V14.01,2013-04-30 09:03:00,
2013-04-30 05:08:00,54.1,50.9,29.94,SSW,202,0.0,2.0,89,0.00,,SKC,0.00,VWS V14.01,2013-04-30 09:08:00,
2013-04-30 05:13:00,53.9,50.7,29.94,SSW,202,0.0,2.0,89,0.00,,SKC,0.00,VWS V14.01,2013-04-30 09:13:00,
2013-04-30 05:18:00,53.9,50.7,29.94,South,180,0.4,0.4,89,0.00,,SKC,0.00,VWS V14.01,2013-04-30 09:18:00,
2013-04-30 05:23:00,53.7,50.5,29.94,SSW,202,0.0,0.4,89,0.00,,SKC,0.00,VWS V14.01,2013-04-30 09:23:00,
2013-04-30 05:28:00,53.7,50.5,29.93,SSW,202,0.4,1.3,89,0.00,,SKC,0.00,VWS V14.01,2013-04-30 09:28:00,
2013-04-30 05:33:00,53.6,50.4,29.93,SSW,202,0.8,1.3,89,0.00,,SKC,0.00,VWS V14.01,2013-04-30 09:33:00,
2013-04-30 05:38:00,53.6,50.4,29.93,South,180,1.7,1.7,89,0.00,,SKC,0.00,VWS V14.01,2013-04-30 09:38:00,
2013-04-30 05:43:00,53.6,50.7,29.93,SSW,202,3.8,3.8,90,0.00,,SKC,0.00,VWS V14.01,2013-04-30 09:43:00,
2013-04-30 05:48:00,53.4,50.5,29.94,SSW,202,1.5,2.6,90,0.00,,SKC,0.00,VWS V14.01,2013-04-30 09:48:00,
2013-04-30 05:53:00,53.4,50.5,29.94,SSW,202,2.9,2.9,90,0.00,,SKC,0.00,VWS V14.01,2013-04-30 09:53:00,
2013-04-30 05:58:00,53.4,50.5,29.93,South,180,1.7,2.9,90,0.00,,SKC,0.00,VWS V14.01,2013-04-30 09:58:00,
2013-04-30 06:03:00,53.2,50.7,29.93,SW,225,2.0,2.0,91,0.00,,SKC,0.00,VWS V14.01,2013-04-30 10:03:00,
2013-04-30 06:08:00,53.4,50.8,29.93,SSW,202,0.6,2.0,91,0.00,,SKC,0.00,VWS V14.01,2013-04-30 10:08:00,
2013-04-30 06:13:00,53.2,50.7,29.93,SSW,202,1.3,2.4,91,0.00,,SKC,0.00,VWS V14.01,2013-04-30 10:13:00,
2013-04-30 06:18:00,53.2,50.7,29.93,SSW,202,1.7,1.7,91,0.00,,SKC,0.00,VWS V14.01,2013-04-30 10:18:00,
2013-04-30 06:23:00,53.2,50.7,29.92,SSW,202,1.3,1.7,91,0.00,,SKC,0.00,VWS V14.01,2013-04-30 10:23:00,
2013-04-30 06:28:00,53.0,50.5,29.93,South,180,1.3,1.7,91,0.00,,SKC,0.00,VWS V14.01,2013-04-30 10:28:00,
2013-04-30 06:33:00,53.2,50.7,29.93,SSW,202,2.4,2.4,91,0.00,,SKC,0.00,VWS V14.01,2013-04-30 10:33:00,
2013-04-30 06:38:00,53.0,50.7,29.93,SSW,202,0.0,2.4,92,0.00,,SKC,0.00,VWS V14.01,2013-04-30 10:38:00,
2013-04-30 06:43:00,53.2,50.9,29.93,SSW,202,0.0,2.4,92,0.00,,SKC,0.00,VWS V14.01,2013-04-30 10:43:00,
2013-04-30 06:48:00,53.2,50.9,29.93,SSW,202,1.3,1.3,92,0.00,,SKC,0.00,VWS V14.01,2013-04-30 10:48:00,
2013-04-30 06:53:00,53.0,50.7,29.94,South,180,1.1,1.3,92,0.00,,SKC,0.00,VWS V14.01,2013-04-30 10:53:00,
2013-04-30 06:58:00,53.2,50.9,29.94,SSW,202,0.2,2.6,92,0.00,,SKC,0.00,VWS V14.01,2013-04-30 10:58:00,
2013-04-30 07:03:00,53.0,50.7,29.93,SSW,202,0.8,0.8,92,0.00,,SKC,0.00,VWS V14.01,2013-04-30 11:03:00,
2013-04-30 07:08:00,53.2,51.2,29.94,SSW,202,0.6,1.1,93,0.00,,SKC,0.00,VWS V14.01,2013-04-30 11:08:00,
2013-04-30 07:13:00,53.2,51.2,29.94,SSW,202,0.0,1.1,93,0.00,,SKC,0.00,VWS V14.01,2013-04-30 11:13:00,
2013-04-30 07:18:00,53.2,52.1,29.95,SSW,202,0.0,1.7,96,0.00,,SKC,0.00,VWS V14.01,2013-04-30 11:18:00,
2013-04-30 07:23:00,53.7,52.6,29.95,WSW,248,0.0,1.7,96,0.00,,SKC,0.00,VWS V14.01,2013-04-30 11:23:00,
2013-04-30 07:28:00,53.9,52.8,29.96,WSW,248,0.0,1.7,96,0.00,,SKC,0.00,VWS V14.01,2013-04-30 11:28:00,
2013-04-30 07:33:00,54.5,53.4,29.96,SSW,202,1.1,1.1,96,0.00,,SKC,0.00,VWS V14.01,2013-04-30 11:33:00,
2013-04-30 07:38:00,55.0,53.9,29.97,SSW,202,0.8,1.1,96,0.00,,SKC,0.00,VWS V14.01,2013-04-30 11:38:00,
2013-04-30 07:43:00,55.0,53.9,29.97,SSW,202,0.6,1.7,96,0.00,,SKC,0.00,VWS V14.01,2013-04-30 11:43:00,
2013-04-30 07:48:00,55.5,54.4,29.97,SW,225,0.0,0.0,96,0.00,,SKC,0.00,VWS V14.01,2013-04-30 11:48:00,
2013-04-30 07:53:00,55.7,54.6,29.96,SSW,202,2.2,3.1,96,0.00,,SKC,0.00,VWS V14.01,2013-04-30 11:53:00,
2013-04-30 07:58:00,57.2,56.1,29.96,SSW,202,4.2,4.2,96,0.00,,SKC,0.00,VWS V14.01,2013-04-30 11:58:00,
2013-04-30 08:03:00,59.1,56.8,29.96,SSW,202,5.1,5.5,92,0.00,,SKC,0.00,VWS V14.01,2013-04-30 12:03:00,
2013-04-30 08:08:00,61.1,57.8,29.96,SSW,202,1.1,5.5,89,0.00,,SKC,0.00,VWS V14.01,2013-04-30 12:08:00,
2013-04-30 08:13:00,62.9,57.0,29.96,South,180,2.6,5.5,81,0.00,,SKC,0.00,VWS V14.01,2013-04-30 12:13:00,
2013-04-30 08:18:00,63.3,56.0,29.97,SSW,202,0.0,2.6,77,0.00,,SKC,0.00,VWS V14.01,2013-04-30 12:18:00,
2013-04-30 08:23:00,62.9,54.5,29.97,SW,225,2.0,4.9,74,0.00,,SKC,0.00,VWS V14.01,2013-04-30 12:23:00,
2013-04-30 08:28:00,62.7,53.9,29.98,WSW,248,0.0,4.9,73,0.00,,SKC,0.00,VWS V14.01,2013-04-30 12:28:00,
2013-04-30 08:34:00,62.7,53.5,29.98,SSW,202,4.0,4.0,72,0.00,,SKC,0.00,VWS V14.01,2013-04-30 12:34:00,
2013-04-30 08:39:00,62.6,53.5,29.97,SW,225,4.6,6.9,72,0.00,,SKC,0.00,VWS V14.01,2013-04-30 12:39:00,
2013-04-30 08:44:00,62.4,53.3,29.97,South,180,5.3,6.9,72,0.00,,SKC,0.00,VWS V14.01,2013-04-30 12:44:00,
2013-04-30 08:49:00,62.4,52.9,29.98,SSW,202,2.2,2.2,71,0.00,,SKC,0.00,VWS V14.01,2013-04-30 12:49:00,
2013-04-30 08:54:00,62.7,53.2,29.99,SSW,202,4.6,4.6,71,0.00,,SKC,0.00,VWS V14.01,2013-04-30 12:54:00,
2013-04-30 08:59:00,62.9,53.4,30.00,South,180,2.4,5.8,71,0.00,,SKC,0.00,VWS V14.01,2013-04-30 12:59:00,
2013-04-30 09:04:00,63.5,53.9,29.99,SE,135,0.0,3.1,71,0.00,,SKC,0.00,VWS V14.01,2013-04-30 13:04:00,
2013-04-30 09:09:00,63.8,54.2,29.99,SW,225,0.0,3.1,71,0.00,,SKC,0.00,VWS V14.01,2013-04-30 13:09:00,
2013-04-30 09:14:00,63.5,53.2,29.99,WSW,248,0.6,3.1,69,0.00,,SKC,0.00,VWS V14.01,2013-04-30 13:14:00,
2013-04-30 09:19:00,63.5,53.2,29.99,WSW,248,0.8,4.9,69,0.00,,SKC,0.00,VWS V14.01,2013-04-30 13:19:00,
2013-04-30 09:24:00,63.6,53.3,30.00,SW,225,2.6,4.9,69,0.00,,SKC,0.00,VWS V14.01,2013-04-30 13:24:00,
2013-04-30 09:29:00,64.2,53.8,30.00,SSW,202,0.6,4.9,69,0.00,,SKC,0.00,VWS V14.01,2013-04-30 13:29:00,
2013-04-30 09:34:00,64.7,54.3,30.01,South,180,2.6,2.6,69,0.00,,SKC,0.00,VWS V14.01,2013-04-30 13:34:00,
2013-04-30 09:39:00,65.1,54.3,30.00,WSW,248,0.2,2.6,68,0.00,,SKC,0.00,VWS V14.01,2013-04-30 13:39:00,
2013-04-30 09:44:00,65.3,53.7,30.00,SSW,202,0.6,4.9,66,0.00,,SKC,0.00,VWS V14.01,2013-04-30 13:44:00,
2013-04-30 09:49:00,65.3,52.8,30.00,South,180,2.9,2.9,64,0.00,,SKC,0.00,VWS V14.01,2013-04-30 13:49:00,
2013-04-30 09:54:00,65.6,52.7,29.99,South,180,4.2,4.2,63,0.00,,SKC,0.00,VWS V14.01,2013-04-30 13:54:00,
2013-04-30 09:59:00,65.8,52.9,30.00,SSW,202,5.5,5.5,63,0.00,,SKC,0.00,VWS V14.01,2013-04-30 13:59:00,
2013-04-30 10:04:00,65.3,52.0,30.00,SW,225,5.1,6.2,62,0.00,,SKC,0.00,VWS V14.01,2013-04-30 14:04:00,
2013-04-30 10:09:00,65.1,52.2,30.01,South,180,3.3,6.2,63,0.00,,SKC,0.00,VWS V14.01,2013-04-30 14:09:00,
2013-04-30 10:14:00,64.4,51.5,30.01,SSW,202,6.9,6.9,63,0.00,,SKC,0.00,VWS V14.01,2013-04-30 14:14:00,
2013-04-30 10:19:00,64.0,51.2,30.01,SW,225,4.2,6.2,63,0.00,,SKC,0.00,VWS V14.01,2013-04-30 14:19:00,
2013-04-30 10:24:00,63.5,51.1,30.01,SSW,202,2.4,6.2,64,0.00,,SKC,0.00,VWS V14.01,2013-04-30 14:24:00,
2013-04-30 10:29:00,63.3,51.3,30.02,SSW,202,1.5,6.2,65,0.00,,SKC,0.00,VWS V14.01,2013-04-30 14:29:00,
2013-04-30 10:34:00,62.9,51.0,30.02,WSW,248,6.9,6.9,65,0.00,,SKC,0.00,VWS V14.01,2013-04-30 14:34:00,
2013-04-30 10:39:00,62.7,50.4,30.02,SW,225,1.3,6.9,64,0.00,,SKC,0.00,VWS V14.01,2013-04-30 14:39:00,
2013-04-30 10:44:00,62.4,50.5,30.01,WSW,248,1.3,6.9,65,0.00,,SKC,0.00,VWS V14.01,2013-04-30 14:44:00,
2013-04-30 10:49:00,62.2,50.3,30.01,SSW,202,2.2,2.9,65,0.00,,SKC,0.00,VWS V14.01,2013-04-30 14:49:00,
2013-04-30 10:54:00,62.0,50.5,30.00,West,270,5.5,5.5,66,0.00,,SKC,0.00,VWS V14.01,2013-04-30 14:54:00,
2013-04-30 10:59:00,61.7,50.2,30.01,South,180,3.8,5.5,66,0.00,,SKC,0.00,VWS V14.01,2013-04-30 14:59:00,
2013-04-30 11:04:00,61.7,50.6,30.00,SSW,202,4.9,6.2,67,0.00,,SKC,0.00,VWS V14.01,2013-04-30 15:04:00,
2013-04-30 11:09:00,61.8,50.7,30.01,South,180,0.8,6.2,67,0.00,,SKC,0.00,VWS V14.01,2013-04-30 15:09:00,
2013-04-30 11:14:00,61.8,51.1,30.02,SW,225,0.0,6.2,68,0.00,,SKC,0.00,VWS V14.01,2013-04-30 15:14:00,
2013-04-30 11:19:00,61.8,51.1,30.02,SW,225,1.3,4.6,68,0.00,,SKC,0.00,VWS V14.01,2013-04-30 15:19:00,
2013-04-30 11:24:00,61.8,50.7,30.03,SW,225,0.0,4.6,67,0.00,,SKC,0.00,VWS V14.01,2013-04-30 15:24:00,
2013-04-30 11:29:00,61.7,50.6,30.03,SW,225,4.4,5.1,67,0.00,,SKC,0.00,VWS V14.01,2013-04-30 15:29:00,
2013-04-30 11:34:00,61.5,50.5,30.03,SSW,202,2.6,3.3,67,0.00,,SKC,0.00,VWS V14.01,2013-04-30 15:34:00,
2013-04-30 11:39:00,61.5,50.8,30.04,WSW,248,0.0,3.3,68,0.00,,SKC,0.00,VWS V14.01,2013-04-30 15:39:00,
2013-04-30 11:44:00,61.1,50.5,30.04,SSW,202,2.4,4.9,68,0.00,,SKC,0.00,VWS V14.01,2013-04-30 15:44:00,
2013-04-30 11:49:00,60.9,50.7,30.03,SSE,158,2.0,2.0,69,0.00,,SKC,0.00,VWS V14.01,2013-04-30 15:49:00,
2013-04-30 11:54:00,60.9,50.7,30.03,South,180,0.0,2.9,69,0.00,,SKC,0.00,VWS V14.01,2013-04-30 15:54:00,
2013-04-30 11:59:00,60.9,51.1,30.02,SSE,158,0.0,2.9,70,0.00,,SKC,0.00,VWS V14.01,2013-04-30 15:59:00,
2013-04-30 12:04:00,60.4,51.3,30.04,West,270,0.0,0.0,72,0.00,,SKC,0.00,VWS V14.01,2013-04-30 16:04:00,
2013-04-30 12:09:00,60.2,51.5,30.04,West,270,0.0,0.0,73,0.00,,SKC,0.00,VWS V14.01,2013-04-30 16:09:00,
2013-04-30 12:14:00,59.7,51.8,30.04,SSE,158,0.0,0.0,75,0.00,,SKC,0.00,VWS V14.01,2013-04-30 16:14:00,
2013-04-30 12:20:00,59.1,51.5,30.04,SSE,158,0.0,0.0,76,0.00,,SKC,0.00,VWS V14.01,2013-04-30 16:20:00,
2013-04-30 12:25:00,58.6,51.8,30.02,SSE,158,0.0,0.0,78,0.00,,SKC,0.00,VWS V14.01,2013-04-30 16:25:00,
2013-04-30 12:30:00,58.1,52.0,30.00,South,180,3.8,3.8,80,0.02,,SKC,0.02,VWS V14.01,2013-04-30 16:30:00,
2013-04-30 12:35:00,57.9,52.5,29.99,SE,135,0.0,3.8,82,0.02,,SKC,0.02,VWS V14.01,2013-04-30 16:35:00,
2013-04-30 12:40:00,57.9,53.1,30.00,South,180,1.3,3.8,84,0.04,,SKC,0.04,VWS V14.01,2013-04-30 16:40:00,
2013-04-30 12:45:00,57.5,53.3,30.00,South,180,2.2,3.8,86,0.04,,SKC,0.04,VWS V14.01,2013-04-30 16:45:00,
2013-04-30 12:50:00,57.5,53.7,29.99,South,180,2.9,2.9,87,0.04,,SKC,0.04,VWS V14.01,2013-04-30 16:50:00,
2013-04-30 12:55:00,57.3,53.5,29.98,SSE,158,0.0,2.9,87,0.04,,SKC,0.04,VWS V14.01,2013-04-30 16:55:00,
2013-04-30 13:00:00,57.3,53.8,29.98,SSW,202,4.0,4.0,88,0.04,,SKC,0.04,VWS V14.01,2013-04-30 17:00:00,
2013-04-30 13:05:00,57.3,54.1,29.98,SSW,202,4.9,4.9,89,0.04,,SKC,0.04,VWS V14.01,2013-04-30 17:05:00,
2013-04-30 13:10:00,57.3,54.1,29.98,South,180,5.8,6.0,89,0.04,,SKC,0.04,VWS V14.01,2013-04-30 17:10:00,
2013-04-30 13:15:00,57.5,54.6,29.98,South,180,6.0,6.9,90,0.04,,SKC,0.04,VWS V14.01,2013-04-30 17:15:00,
2013-04-30 13:20:00,57.7,54.8,29.98,SSE,158,7.8,7.8,90,0.04,,SKC,0.04,VWS V14.01,2013-04-30 17:20:00,
2013-04-30 13:25:00,57.9,55.0,29.98,SSW,202,5.8,8.2,90,0.04,,SKC,0.04,VWS V14.01,2013-04-30 17:25:00,
2013-04-30 13:30:00,58.2,55.0,29.97,South,180,7.1,17.8,89,0.04,,SKC,0.04,VWS V14.01,2013-04-30 17:30:00,
2013-04-30 13:35:00,58.6,55.4,29.98,South,180,6.2,9.6,89,0.02,,SKC,0.04,VWS V14.01,2013-04-30 17:35:00,
2013-04-30 13:40:00,59.0,55.8,29.98,SSW,202,7.3,9.6,89,0.02,,SKC,0.04,VWS V14.01,2013-04-30 17:40:00,
2013-04-30 13:45:00,59.7,56.5,29.98,SSE,158,5.3,9.6,89,0.02,,SKC,0.04,VWS V14.01,2013-04-30 17:45:00,
2013-04-30 13:50:00,60.2,56.6,29.98,South,180,0.0,5.5,88,0.00,,SKC,0.04,VWS V14.01,2013-04-30 17:50:00,
2013-04-30 13:55:00,60.9,57.0,29.98,SSW,202,6.2,6.2,87,0.00,,SKC,0.04,VWS V14.01,2013-04-30 17:55:00,
2013-04-30 14:00:00,61.7,57.5,29.97,SSW,202,7.6,7.6,86,0.00,,SKC,0.04,VWS V14.01,2013-04-30 18:00:00,
2013-04-30 14:05:00,62.2,57.3,29.97,SSW,202,11.6,11.6,84,0.00,,SKC,0.04,VWS V14.01,2013-04-30 18:05:00,
2013-04-30 14:10:00,62.9,57.3,29.97,SSW,202,7.1,11.6,82,0.00,,SKC,0.04,VWS V14.01,2013-04-30 18:10:00,
2013-04-30 14:15:00,63.8,57.2,29.97,South,180,6.0,11.6,79,0.00,,SKC,0.04,VWS V14.01,2013-04-30 18:15:00,
2013-04-30 14:20:00,64.2,56.5,29.97,SSW,202,7.1,7.1,76,0.00,,SKC,0.04,VWS V14.01,2013-04-30 18:20:00,
2013-04-30 14:25:00,64.4,56.3,29.97,South,180,5.3,7.1,75,0.00,,SKC,0.04,VWS V14.01,2013-04-30 18:25:00,
2013-04-30 14:30:00,65.3,56.8,29.97,South,180,9.1,9.1,74,0.00,,SKC,0.04,VWS V14.01,2013-04-30 18:30:00,
2013-04-30 14:35:00,66.5,58.0,29.97,South,180,8.0,9.1,74,0.00,,SKC,0.04,VWS V14.01,2013-04-30 18:35:00,
2013-04-30 14:40:00,68.0,58.3,29.97,SW,225,9.6,9.6,71,0.00,,SKC,0.04,VWS V14.01,2013-04-30 18:40:00,
2013-04-30 14:45:00,68.7,57.3,29.97,SW,225,4.2,9.6,67,0.00,,SKC,0.04,VWS V14.01,2013-04-30 18:45:00,
2013-04-30 14:50:00,69.2,57.0,29.97,SW,225,7.1,7.1,65,0.00,,SKC,0.04,VWS V14.01,2013-04-30 18:50:00,
2013-04-30 14:55:00,69.8,56.2,29.97,SSW,202,3.3,7.1,62,0.00,,SKC,0.04,VWS V14.01,2013-04-30 18:55:00,
2013-04-30 15:00:00,69.9,55.4,29.97,South,180,7.1,8.5,60,0.00,,SKC,0.06,VWS V14.01,2013-04-30 19:00:00,
2013-04-30 15:05:00,69.8,55.3,29.97,South,180,16.7,16.7,60,0.00,,SKC,0.04,VWS V14.01,2013-04-30 19:05:00,
2013-04-30 15:10:00,69.8,54.8,29.97,WSW,248,4.4,16.7,59,0.00,,SKC,0.04,VWS V14.01,2013-04-30 19:10:00,
2013-04-30 15:15:00,69.4,54.5,29.97,SW,225,3.8,16.7,59,0.00,,SKC,0.04,VWS V14.01,2013-04-30 19:15:00,
2013-04-30 15:20:00,69.2,54.3,29.97,SW,225,6.2,6.9,59,0.00,,SKC,0.04,VWS V14.01,2013-04-30 19:20:00,
2013-04-30 15:25:00,69.0,54.1,29.97,SSW,202,7.8,9.1,59,0.00,,SKC,0.04,VWS V14.01,2013-04-30 19:25:00,
2013-04-30 15:30:00,68.9,54.5,29.97,SSE,158,8.5,9.1,60,0.00,,SKC,0.04,VWS V14.01,2013-04-30 19:30:00,
2013-04-30 15:35:00,69.4,54.9,29.97,SSW,202,0.6,8.5,60,0.00,,SKC,0.04,VWS V14.01,2013-04-30 19:35:00,
2013-04-30 15:40:00,69.9,56.3,29.96,SSE,158,8.5,8.5,62,0.00,,SKC,0.04,VWS V14.01,2013-04-30 19:40:00,
2013-04-30 15:45:00,70.8,56.7,29.96,SSE,158,4.9,4.9,61,0.00,,SKC,0.04,VWS V14.01,2013-04-30 19:45:00,
2013-04-30 15:50:00,71.6,56.1,29.97,SSW,202,6.2,9.8,58,0.00,,SKC,0.04,VWS V14.01,2013-04-30 19:50:00,
2013-04-30 15:56:00,71.9,56.8,29.97,SW,225,0.8,9.8,59,0.00,,SKC,0.04,VWS V14.01,2013-04-30 19:56:00,
2013-04-30 16:01:00,71.9,56.3,29.96,South,180,5.1,5.1,58,0.00,,SKC,0.04,VWS V14.01,2013-04-30 20:01:00,
2013-04-30 16:06:00,71.9,56.3,29.96,SSW,202,2.6,8.0,58,0.00,,SKC,0.04,VWS V14.01,2013-04-30 20:06:00,
2013-04-30 16:11:00,71.9,56.3,29.96,SW,225,6.7,8.0,58,0.00,,SKC,0.04,VWS V14.01,2013-04-30 20:11:00,
2013-04-30 16:16:00,71.7,55.2,29.95,South,180,2.6,2.6,56,0.00,,SKC,0.04,VWS V14.01,2013-04-30 20:16:00,
2013-04-30 16:21:00,71.9,56.3,29.95,SW,225,5.5,5.5,58,0.00,,SKC,0.04,VWS V14.01,2013-04-30 20:21:00,
2013-04-30 16:26:00,71.9,55.4,29.95,SSW,202,6.7,6.7,56,0.00,,SKC,0.04,VWS V14.01,2013-04-30 20:26:00,
2013-04-30 16:31:00,71.2,54.7,29.95,SSW,202,3.8,3.8,56,0.00,,SKC,0.04,VWS V14.01,2013-04-30 20:31:00,
2013-04-30 16:36:00,70.8,53.3,29.95,South,180,7.3,7.3,54,0.00,,SKC,0.04,VWS V14.01,2013-04-30 20:36:00,
2013-04-30 16:41:00,70.8,53.3,29.95,SW,225,8.5,8.5,54,0.00,,SKC,0.04,VWS V14.01,2013-04-30 20:41:00,
2013-04-30 16:46:00,71.6,54.6,29.95,SE,135,4.4,4.4,55,0.00,,SKC,0.04,VWS V14.01,2013-04-30 20:46:00,
2013-04-30 16:51:00,71.7,54.7,29.95,SSW,202,6.2,6.2,55,0.00,,SKC,0.04,VWS V14.01,2013-04-30 20:51:00,
2013-04-30 16:56:00,71.9,54.4,29.95,SW,225,4.4,6.2,54,0.00,,SKC,0.04,VWS V14.01,2013-04-30 20:56:00,
2013-04-30 17:01:00,72.3,54.7,29.95,SSW,202,4.2,4.2,54,0.00,,SKC,0.04,VWS V14.01,2013-04-30 21:01:00,
2013-04-30 17:06:00,72.5,53.9,29.95,SSW,202,8.7,10.5,52,0.00,,SKC,0.04,VWS V14.01,2013-04-30 21:06:00,
2013-04-30 17:11:00,72.8,54.2,29.95,SSW,202,5.5,11.1,52,0.00,,SKC,0.04,VWS V14.01,2013-04-30 21:11:00,
2013-04-30 17:16:00,72.8,53.6,29.95,SSE,158,7.3,7.3,51,0.00,,SKC,0.04,VWS V14.01,2013-04-30 21:16:00,
2013-04-30 17:21:00,73.0,53.8,29.95,SSW,202,5.1,7.3,51,0.00,,SKC,0.04,VWS V14.01,2013-04-30 21:21:00,
2013-04-30 17:26:00,73.0,53.8,29.95,SW,225,5.1,7.3,51,0.00,,SKC,0.04,VWS V14.01,2013-04-30 21:26:00,
2013-04-30 17:31:00,73.2,54.0,29.95,SSE,158,0.2,0.2,51,0.00,,SKC,0.04,VWS V14.01,2013-04-30 21:31:00,
2013-04-30 17:36:00,73.0,53.3,29.95,SW,225,3.8,4.6,50,0.00,,SKC,0.04,VWS V14.01,2013-04-30 21:36:00,
2013-04-30 17:41:00,73.0,53.3,29.95,SSW,202,9.8,60.8,50,0.00,,SKC,0.04,VWS V14.01,2013-04-30 21:41:00,
2013-04-30 17:46:00,72.8,53.1,29.96,South,180,5.3,5.3,50,0.00,,SKC,0.04,VWS V14.01,2013-04-30 21:46:00,
2013-04-30 17:51:00,72.8,53.6,29.96,SW,225,6.0,6.0,51,0.00,,SKC,0.04,VWS V14.01,2013-04-30 21:51:00,
2013-04-30 17:56:00,72.5,52.8,29.96,South,180,1.7,6.2,50,0.00,,SKC,0.04,VWS V14.01,2013-04-30 21:56:00,
2013-04-30 18:01:00,72.8,53.1,29.96,SSW,202,5.3,5.3,50,0.00,,SKC,0.04,VWS V14.01,2013-04-30 22:01:00,
2013-04-30 18:06:00,72.5,52.8,29.96,South,180,4.4,14.0,50,0.00,,SKC,0.04,VWS V14.01,2013-04-30 22:06:00,
2013-04-30 18:11:00,72.5,52.8,29.95,South,180,8.0,14.0,50,0.00,,SKC,0.04,VWS V14.01,2013-04-30 22:11:00,
2013-04-30 18:16:00,72.5,53.4,29.95,SSE,158,7.1,7.1,51,0.00,,SKC,0.04,VWS V14.01,2013-04-30 22:16:00,
2013-04-30 18:21:00,72.3,52.6,29.95,SSW,202,8.0,8.0,50,0.00,,SKC,0.04,VWS V14.01,2013-04-30 22:21:00,
2013-04-30 18:26:00,72.3,52.6,29.96,South,180,8.0,8.5,50,0.00,,SKC,0.04,VWS V14.01,2013-04-30 22:26:00,
2013-04-30 18:31:00,72.3,52.6,29.96,South,180,6.7,6.7,50,0.00,,SKC,0.04,VWS V14.01,2013-04-30 22:31:00,
2013-04-30 18:36:00,72.3,53.2,29.96,SSW,202,6.7,6.7,51,0.00,,SKC,0.04,VWS V14.01,2013-04-30 22:36:00,
2013-04-30 18:41:00,72.1,53.0,29.96,South,180,5.5,6.7,51,0.00,,SKC,0.04,VWS V14.01,2013-04-30 22:41:00,
2013-04-30 18:46:00,71.9,52.8,29.96,SSW,202,6.2,6.2,51,0.00,,SKC,0.04,VWS V14.01,2013-04-30 22:46:00,
2013-04-30 18:51:00,71.9,52.3,29.96,SSW,202,6.0,8.0,50,0.00,,SKC,0.04,VWS V14.01,2013-04-30 22:51:00,
2013-04-30 18:56:00,71.9,52.3,29.96,South,180,9.1,9.1,50,0.00,,SKC,0.04,VWS V14.01,2013-04-30 22:56:00,
2013-04-30 19:02:00,71.9,52.8,29.96,SW,225,3.8,3.8,51,0.00,,SKC,0.04,VWS V14.01,2013-04-30 23:02:00,
2013-04-30 19:07:00,71.7,52.6,29.96,SSW,202,2.9,3.8,51,0.00,,SKC,0.04,VWS V14.01,2013-04-30 23:07:00,
2013-04-30 19:12:00,71.7,52.6,29.97,SSW,202,2.9,3.8,51,0.00,,SKC,0.04,VWS V14.01,2013-04-30 23:12:00,
2013-04-30 19:17:00,71.7,52.6,29.96,SSW,202,2.9,2.9,51,0.00,,SKC,0.04,VWS V14.01,2013-04-30 23:17:00,
2013-04-30 19:22:00,71.7,52.6,29.96,SSW,202,2.9,2.9,51,0.00,,SKC,0.04,VWS V14.01,2013-04-30 23:22:00,
2013-04-30 19:27:00,71.7,52.6,29.97,SSW,202,2.9,2.9,51,0.00,,SKC,0.04,VWS V14.01,2013-04-30 23:27:00,
2013-04-30 19:32:00,71.7,52.6,29.97,SSW,202,2.9,2.9,51,0.00,,SKC,0.04,VWS V14.01,2013-04-30 23:32:00,
2013-04-30 19:37:00,71.7,52.6,29.97,SSW,202,2.9,2.9,51,0.00,,SKC,0.04,VWS V14.01,2013-04-30 23:37:00,
2013-04-30 19:42:00,71.7,52.6,29.97,SSW,202,2.9,2.9,51,0.00,,SKC,0.04,VWS V14.01,2013-04-30 23:42:00,
2013-04-30 19:47:00,71.7,52.6,29.97,SSW,202,2.9,2.9,51,0.00,,SKC,0.04,VWS V14.01,2013-04-30 23:47:00,
2013-04-30 19:52:00,71.7,52.6,29.97,SSW,202,2.9,2.9,51,0.00,,SKC,0.04,VWS V14.01,2013-04-30 23:52:00,
2013-04-30 19:57:00,71.7,52.6,29.97,SSW,202,2.9,2.9,51,0.00,,SKC,0.04,VWS V14.01,2013-04-30 23:57:00,
2013-04-30 20:02:00,71.7,52.6,29.97,SSW,202,2.9,2.9,51,0.00,,SKC,0.04,VWS V14.01,2013-05-01 00:02:00,
2013-04-30 20:07:00,71.7,52.6,29.97,SSW,202,2.9,2.9,51,0.00,,SKC,0.04,VWS V14.01,2013-05-01 00:07:00,
2013-04-30 20:12:00,71.7,52.6,29.97,SSW,202,2.9,2.9,51,0.00,,SKC,0.04,VWS V14.01,2013-05-01 00:12:00,
2013-04-30 20:17:00,71.7,52.6,29.97,SSW,202,2.9,2.9,51,0.00,,SKC,0.04,VWS V14.01,2013-05-01 00:17:00,
2013-04-30 20:22:00,71.7,52.6,29.97,SSW,202,2.9,2.9,51,0.00,,SKC,0.04,VWS V14.01,2013-05-01 00:22:00,
2013-04-30 20:28:00,71.7,52.6,29.97,SSW,202,2.9,2.9,51,0.00,,SKC,0.04,VWS V14.01,2013-05-01 00:28:00,
2013-04-30 20:33:00,71.7,52.6,29.97,SSW,202,2.9,2.9,51,0.00,,SKC,0.04,VWS V14.01,2013-05-01 00:33:00,
2013-04-30 20:38:00,71.7,52.6,29.97,SSW,202,2.9,2.9,51,0.00,,SKC,0.04,VWS V14.01,2013-05-01 00:38:00,
2013-04-30 20:43:00,64.9,51.2,29.99,SSW,202,2.9,2.9,61,0.00,,SKC,0.04,VWS V14.01,2013-05-01 00:43:00,
2013-04-30 20:48:00,64.9,51.2,29.99,South,180,1.7,1.7,61,0.00,,SKC,0.04,VWS V14.01,2013-05-01 00:48:00,
2013-04-30 20:53:00,64.9,51.2,29.99,South,180,1.7,1.7,61,0.00,,SKC,0.04,VWS V14.01,2013-05-01 00:53:00,
2013-04-30 20:58:00,64.9,51.2,29.99,South,180,1.7,1.7,61,0.00,,SKC,0.04,VWS V14.01,2013-05-01 00:58:00,
2013-04-30 21:03:00,64.9,51.2,30.00,South,180,1.7,1.7,61,0.00,,SKC,0.04,VWS V14.01,2013-05-01 01:03:00,
2013-04-30 21:08:00,64.9,52.5,30.00,SSW,202,3.1,3.1,64,0.00,,SKC,0.04,VWS V14.01,2013-05-01 01:08:00,
2013-04-30 21:13:00,64.9,52.5,30.00,SSW,202,3.1,3.1,64,0.00,,SKC,0.04,VWS V14.01,2013-05-01 01:13:00,
2013-04-30 21:18:00,64.9,52.5,30.00,SSW,202,3.1,3.1,64,0.00,,SKC,0.04,VWS V14.01,2013-05-01 01:18:00,
2013-04-30 21:23:00,62.2,49.9,30.00,SSW,202,0.6,3.1,64,0.00,,SKC,0.04,VWS V14.01,2013-05-01 01:23:00,
2013-04-30 21:28:00,61.7,50.6,30.00,South,180,1.3,3.1,67,0.00,,SKC,0.04,VWS V14.01,2013-05-01 01:28:00,
2013-04-30 21:33:00,61.5,50.8,30.01,South,180,0.0,0.0,68,0.00,,SKC,0.04,VWS V14.01,2013-05-01 01:33:00,
2013-04-30 21:38:00,61.5,50.8,30.01,SSE,158,0.0,0.0,68,0.00,,SKC,0.04,VWS V14.01,2013-05-01 01:38:00,
2013-04-30 21:43:00,61.1,50.9,30.01,South,180,0.0,1.1,69,0.00,,SKC,0.04,VWS V14.01,2013-05-01 01:43:00,
2013-04-30 21:48:00,60.8,50.6,30.01,South,180,0.0,0.0,69,0.00,,SKC,0.04,VWS V14.01,2013-05-01 01:48:00,
2013-04-30 21:53:00,60.4,50.2,30.01,South,180,0.0,0.0,69,0.00,,SKC,0.04,VWS V14.01,2013-05-01 01:53:00,
2013-04-30 21:58:00,60.2,50.4,30.01,SSE,158,0.0,0.6,70,0.00,,SKC,0.04,VWS V14.01,2013-05-01 01:58:00,
2013-04-30 22:03:00,59.9,50.1,30.02,South,180,0.0,0.0,70,0.00,,SKC,0.04,VWS V14.01,2013-05-01 02:03:00,
2013-04-30 22:08:00,59.7,50.7,30.02,SSE,158,0.0,0.0,72,0.00,,SKC,0.04,VWS V14.01,2013-05-01 02:08:00,
2013-04-30 22:13:00,59.3,50.3,30.02,South,180,0.0,0.0,72,0.00,,SKC,0.04,VWS V14.01,2013-05-01 02:13:00,
2013-04-30 22:18:00,59.1,50.1,30.02,SE,135,0.0,0.0,72,0.00,,SKC,0.04,VWS V14.01,2013-05-01 02:18:00,
2013-04-30 22:23:00,59.1,50.5,30.02,SSE,158,0.0,0.0,73,0.00,,SKC,0.04,VWS V14.01,2013-05-01 02:23:00,
2013-04-30 22:28:00,58.6,50.0,30.02,SE,135,0.0,0.0,73,0.00,,SKC,0.04,VWS V14.01,2013-05-01 02:28:00,
2013-04-30 22:33:00,58.6,50.0,30.02,SE,135,0.0,0.0,73,0.00,,SKC,0.04,VWS V14.01,2013-05-01 02:33:00,
2013-04-30 22:38:00,58.4,50.2,30.02,SSE,158,0.0,0.0,74,0.00,,SKC,0.04,VWS V14.01,2013-05-01 02:38:00,
2013-04-30 22:43:00,58.4,50.2,30.02,South,180,0.0,0.0,74,0.00,,SKC,0.04,VWS V14.01,2013-05-01 02:43:00,
2013-04-30 22:48:00,58.4,50.2,30.02,South,180,0.0,0.0,74,0.00,,SKC,0.04,VWS V14.01,2013-05-01 02:48:00,
2013-04-30 22:53:00,58.1,50.2,30.02,South,180,0.0,0.0,75,0.00,,SKC,0.04,VWS V14.01,2013-05-01 02:53:00,
2013-04-30 22:58:00,58.1,50.2,30.02,South,180,0.0,0.0,75,0.00,,SKC,0.04,VWS V14.01,2013-05-01 02:58:00,
2013-04-30 23:03:00,57.9,50.4,30.02,SSE,158,0.0,0.0,76,0.00,,SKC,0.04,VWS V14.01,2013-05-01 03:03:00,
2013-04-30 23:08:00,57.7,50.2,30.02,SSE,158,0.0,0.0,76,0.00,,SKC,0.04,VWS V14.01,2013-05-01 03:08:00,
2013-04-30 23:13:00,57.5,50.4,30.03,SSE,158,0.0,0.0,77,0.00,,SKC,0.04,VWS V14.01,2013-05-01 03:13:00,
2013-04-30 23:18:00,57.3,50.2,30.03,South,180,0.0,0.0,77,0.00,,SKC,0.04,VWS V14.01,2013-05-01 03:18:00,
2013-04-30 23:23:00,57.3,50.2,30.03,SSE,158,0.0,0.0,77,0.00,,SKC,0.04,VWS V14.01,2013-05-01 03:23:00,
2013-04-30 23:28:00,57.3,50.5,30.03,South,180,0.0,0.0,78,0.00,,SKC,0.04,VWS V14.01,2013-05-01 03:28:00,
2013-04-30 23:33:00,57.3,50.5,30.03,South,180,0.0,0.0,78,0.00,,SKC,0.04,VWS V14.01,2013-05-01 03:33:00,
2013-04-30 23:38:00,57.2,50.4,30.03,South,180,0.0,0.0,78,0.00,,SKC,0.04,VWS V14.01,2013-05-01 03:38:00,
2013-04-30 23:43:00,56.8,50.0,30.03,South,180,0.0,0.0,78,0.00,,SKC,0.04,VWS V14.01,2013-05-01 03:43:00,
2013-04-30 23:48:00,56.8,50.0,30.03,South,180,0.0,0.0,78,0.00,,SKC,0.04,VWS V14.01,2013-05-01 03:48:00,
2013-04-30 23:54:00,56.8,50.4,30.03,South,180,0.0,0.0,79,0.00,,SKC,0.04,VWS V14.01,2013-05-01 03:54:00,
2013-04-30 23:59:00,56.8,50.4,30.03,South,180,0.0,0.0,79,0.00,,SKC,0.04,VWS V14.01,2013-05-01 03:59:00,